Temperature
13 13 14 14 15 15 16 16 15 15 15 15 14 14 14 14 14 14 14 15 14 15 16 15 15 15 14 15 15 15 15 15 15 16 16 16 15 15
13 14 14 14 15 15 15 15 15 15 14 14 14 14 14 14 13 13 14 14 15 15 15 15 14 14 14 14 14 14 14 14 14 15 15 15 15 15
13 13 13 13 14 14 14 14 14 14 14 13 13 13 13 13 13 13 13 14 15 14 13 13 13 13 13 13 13 13 13 14 14 14 14 14 14 14
13 13 13 13 13 13 13 14 14 14 13 13 12 12 12 12 12 12 12 12 13 12 12 12 12 12 12 12 12 13 13 13 13 13 14 13 13 13
13 12 13 12 12 12 12 13 13 13 13 13 12 12 12 12 11 11 11 11 12 12 12 12 12 12 12 12 12 13 13 13 13 13 13 13 13 13
13 13 13 13 13 12 12 12 12 12 12 12 12 12 12 12 12 11 11 11 10 10 11 11 11 11 12 12 12 12 12 12 12 13 13 13 13 13
13 13 13 13 13 13 12 12 11 11 11 11 12 12 12 13 13 13 12 11 11 11 11 10 10 10 11 11 12 12 12 12 12 12 12 12 13 13
13 13 13 13 12 12 12 12 11 11 11 12 12 13 13 13 13 13 12 12 11 11 11 10 10 10 10 11 11 11 11 11 11 11 11 12 12 12
12 12 12 13 12 12 12 12 11 11 12 12 12 12 12 12 12 13 12 13 12 11 11 10 10 10 9 10 10 10 10 10 10 10 10 11 11 11
12 12 12 12 12 12 11 12 12 12 12 12 12 11 11 11 11 11 11 11 11 11 11 11 11 9 9 9 9 9 9 9 9 9 9 10 10 10
11 11 11 12 11 11 12 12 12 12 12 12 12 11 11 11 11 11 11 12 12 11 11 12 11 11 9 8 8 8 8 8 8 8 8 9 9 8
11 11 11 11 12 11 11 12 12 12 11 11 11 11 11 11 11 11 12 13 13 12 10 11 11 11 9 8 8 8 8 8 7 7 7 7 8 7
11 11 11 11 11 11 11 11 11 11 11 10 10 10 10 10 10 10 11 12 12 12 10 11 11 11 11 9 9 8 8 7 7 7 7 7 6 6
12 11 11 11 11 11 10 11 11 11 11 11 11 11 11 10 9 9 10 9 10 9 8 9 10 10 10 10 10 9 8 7 7 7 7 7 6 6
12 10 10 10 10 10 10 10 10 11 11 11 11 11 10 9 9 8 8 9 8 8 8 8 8 9 9 9 9 8 8 8 7 6 7 7 7 6
11 10 10 9 9 9 9 9 10 10 11 11 10 10 9 9 10 9 9 9 9 7 7 7 7 8 9 8 8 8 8 8 7 6 6 7 7 6
10 9 9 9 9 9 9 9 9 9 10 10 10 9 10 10 10 10 10 10 10 10 9 8 7 7 7 8 8 8 8 8 7 6 7 7 7 6
9 10 10 10 9 10 10 9 9 10 10 10 10 10 10 10 10 10 10 10 10 9 9 9 8 8 8 7 7 8 8 7 7 7 7 7 7 6
10 10 10 10 10 10 10 10 10 10 10 10 10 10 10 10 9 10 10 10 9 9 9 8 8 9 10 10 7 7 7 7 7 7 7 6 7 6
11 11 11 11 10 10 10 10 10 9 10 10 10 10 10 10 10 10 10 10 9 9 9 8 8 8 8 8 8 7 6 6 6 6 6 6 6 6
12 11 11 11 11 11 10 10 10 9 10 10 10 10 10 10 10 10 9 9 9 9 9 9 7 7 7 7 8 8 7 6 6 5 5 5 5 5
12 12 11 11 11 11 10 10 10 9 9 10 10 10 10 10 10 10 9 9 9 9 9 8 7 7 8 8 8 8 8 7 6 6 6 5 5 4
11 12 11 11 11 11 10 10 10 10 10 10 10 10 10 10 10 10 9 9 9 9 8 8 8 8 8 8 8 8 8 7 7 7 7 6 5 4
Wind_Speed
16 16 13 12 11 13 14 12 10 10 9 7 6 6 6 9 10 9 7 7 5 8 11 11 13 15 13 14 14 13 13 12 11 9 7 3 1 2
12 14 13 10 10 11 11 10 11 10 6 5 5 9 8 9 11 10 9 10 9 13 15 15 16 15 14 14 14 13 13 12 11 10 8 6 6 5
9 8 7 7 8 10 10 9 10 10 7 2 6 10 10 11 9 6 9 12 12 16 16 15 16 16 15 15 15 14 13 13 12 10 9 8 7 5
5 4 4 4 6 6 7 10 9 10 8 9 8 9 10 10 9 8 7 12 13 15 16 16 16 16 15 16 15 14 14 13 12 11 9 7 6 5
5 3 3 5 4 5 7 4 3 8 10 10 10 12 11 12 11 11 11 11 12 14 15 15 15 15 15 14 13 14 14 13 12 11 10 9 8 7
4 5 5 4 3 7 9 9 8 10 10 8 6 10 12 15 13 11 10 10 10 10 13 13 14 14 13 13 11 10 11 11 11 11 12 11 9 8
2 4 5 5 6 9 9 10 10 9 7 6 4 6 10 12 12 11 11 10 9 8 9 8 9 10 10 11 12 11 13 14 14 14 13 12 10 9
2 0 4 8 8 10 11 11 9 9 9 7 5 6 8 9 8 10 11 10 9 7 8 8 7 8 8 10 10 12 13 14 15 15 16 13 10 9
4 1 6 8 10 11 11 11 11 12 9 7 8 8 8 8 7 8 7 6 8 7 6 8 7 9 9 10 11 12 11 11 13 15 18 17 15 10
4 4 7 8 8 10 10 10 11 9 6 8 7 7 9 8 6 6 7 7 8 5 2 5 6 7 7 9 11 12 12 11 10 11 15 19 19 13
7 6 6 7 4 4 8 11 11 9 11 15 14 13 13 10 5 5 7 8 7 6 2 3 4 6 5 5 8 10 9 5 3 4 7 14 22 17
9 6 5 8 5 1 6 9 11 10 11 12 12 12 10 7 2 2 5 7 7 6 2 1 4 4 3 1 3 4 4 5 3 2 2 6 12 14
11 10 7 9 7 3 4 8 10 11 11 11 10 9 8 8 7 6 6 3 3 5 3 2 2 2 3 4 4 3 4 8 9 6 3 3 4 8
11 10 8 10 10 7 6 9 9 9 9 8 7 7 8 9 9 9 10 11 12 10 5 3 3 3 2 2 2 3 3 6 8 9 10 7 3 6
9 14 14 14 13 10 10 8 7 6 7 7 8 8 8 9 9 9 10 10 10 9 7 6 5 3 3 3 3 3 4 5 8 10 10 9 9 10
13 15 13 11 11 11 8 6 6 6 6 8 8 9 9 9 8 8 9 9 10 9 8 6 4 2 3 4 3 4 5 5 8 9 11 9 9 10
16 14 13 12 12 11 10 9 7 7 8 9 9 9 10 9 8 7 7 7 7 8 8 7 6 6 5 4 3 4 5 6 8 9 11 10 9 10
14 15 14 14 13 12 11 10 10 10 10 9 9 9 10 9 8 7 6 7 6 6 5 4 4 5 6 3 4 5 5 6 8 9 10 11 11 12
14 15 14 14 13 12 11 11 11 11 10 9 9 9 9 8 7 8 7 7 6 5 5 3 2 1 2 1 4 2 5 7 8 9 10 11 11 12
15 15 14 14 13 12 12 11 11 12 10 10 10 9 9 9 8 8 7 7 6 5 5 4 3 2 3 4 2 2 3 3 7 9 10 10 12 10
14 15 15 14 13 12 12 11 12 12 11 11 10 9 9 8 8 7 6 5 3 4 4 5 5 1 3 4 4 1 3 7 4 5 8 10 12 13
13 14 14 14 14 13 12 12 12 12 12 11 11 10 8 8 8 8 9 8 6 5 4 4 4 4 2 3 5 5 5 3 9 12 6 3 7 10
12 13 14 14 14 13 13 14 14 13 12 11 11 10 9 7 7 7 7 6 6 5 4 4 4 3 1 1 3 5 5 7 7 6 5 14 15 17
Wind_Direction
271 274 264 252 245 247 250 239 225 226 219 193 173 159 131 127 121 105 89 71 70 84 89 93 92 90 88 87 84 78 75 72 71 69 65 46 358 252
281 279 274 262 249 241 230 224 218 222 203 183 170 138 108 102 92 87 85 61 57 88 100 97 91 91 89 86 85 81 74 69 64 62 61 55 46 30
306 295 289 285 266 256 250 238 222 214 194 127 136 120 107 100 97 110 91 73 68 84 93 92 89 85 83 82 77 74 71 66 58 52 47 43 40 31
339 4 356 318 297 294 268 246 228 207 168 141 138 125 122 119 125 125 106 89 86 88 92 89 84 83 80 77 75 71 67 64 58 49 42 40 43 34
303 330 340 324 44 55 40 46 121 131 129 135 141 147 143 138 137 124 116 106 100 107 101 92 86 83 82 80 73 64 60 57 54 50 43 34 26 11
314 336 328 343 38 86 81 70 80 101 113 115 128 146 148 156 142 133 124 113 113 103 94 105 107 103 100 96 88 78 70 64 57 45 31 20 8 356
27 13 10 24 65 94 107 101 93 97 112 120 138 171 162 161 143 134 123 120 119 121 119 118 111 96 90 82 78 64 58 55 49 41 31 27 22 14
99 96 116 109 104 99 98 99 115 132 148 153 178 149 120 119 127 138 140 142 128 118 116 102 95 82 69 69 62 58 53 45 39 32 27 27 28 34
113 70 103 115 133 127 113 96 77 55 64 89 106 124 126 117 137 147 154 149 119 133 133 118 112 97 92 86 79 72 62 50 41 35 28 20 10 12
153 127 113 129 133 137 134 119 100 73 62 94 97 99 100 105 106 112 118 114 117 133 170 138 128 115 116 101 85 73 70 61 50 37 27 13 356 334
181 148 143 134 90 139 143 124 107 87 63 74 81 76 67 54 56 142 159 169 148 132 179 150 162 150 127 125 120 117 103 82 67 60 47 22 356 337
181 149 76 115 124 305 150 136 123 119 115 105 99 96 93 88 67 286 201 185 151 139 100 291 164 182 140 131 113 127 88 27 272 187 82 32 3 350
184 173 143 121 118 106 162 141 125 125 126 127 127 124 127 127 115 64 25 54 116 101 71 324 151 193 148 160 134 58 31 15 1 356 348 17 341 341
187 163 137 130 115 104 115 112 129 148 147 143 138 135 131 118 102 80 61 57 58 69 64 20 82 52 84 130 82 27 39 31 7 357 348 350 288 275
151 120 126 127 117 109 120 139 162 165 157 154 149 141 122 109 114 108 97 94 88 86 84 48 54 77 61 54 66 40 359 24 12 4 350 355 0 357
120 126 132 128 114 120 142 162 171 165 162 146 135 129 131 145 146 139 144 146 129 118 107 95 88 50 78 72 38 28 9 5 5 6 345 352 357 2
145 145 150 147 148 158 166 166 153 155 149 141 142 151 155 149 141 143 147 143 131 130 134 123 89 62 42 360 9 17 358 2 5 360 345 346 352 359
159 157 157 156 158 163 161 157 156 157 149 149 154 156 152 148 145 148 147 136 131 127 115 106 147 173 170 124 6 355 355 360 356 350 350 343 345 358
175 162 162 161 161 163 161 158 155 149 152 153 148 147 145 144 157 155 151 145 139 130 113 103 93 314 275 119 114 34 352 350 346 345 349 343 344 348
179 166 165 164 165 165 163 159 152 152 160 153 146 147 148 157 163 160 159 156 144 138 127 117 96 52 12 360 331 157 170 322 343 337 339 337 342 329
190 166 167 168 167 166 163 156 156 163 161 159 157 157 157 157 154 151 129 92 129 143 124 103 86 96 271 262 267 313 183 202 234 300 325 334 341 337
195 170 170 170 168 167 163 160 161 161 165 168 163 164 168 162 148 147 147 155 162 137 116 120 155 208 249 331 339 330 336 293 225 222 231 278 337 335
200 178 172 173 172 172 171 172 169 168 174 177 169 169 170 166 155 153 155 157 150 150 156 163 172 204 244 327 307 327 348 334 328 313 233 207 222 237
Height
1447 1445 1444 1443 1442 1442 1443 1444 1445 1446 1447 1450 1453 1455 1457 1459 1461 1463 1464 1464 1464 1465 1466 1467 1467 1469 1471 1473 1475 1476 1476 1477 1480 1482 1485 1487 1489 1491
1440 1437 1437 1437 1437 1436 1436 1436 1437 1440 1442 1446 1449 1451 1454 1457 1459 1462 1463 1464 1463 1464 1465 1467 1468 1469 1471 1473 1474 1476 1476 1477 1478 1480 1482 1484 1484 1486
1436 1433 1432 1432 1431 1431 1431 1431 1431 1434 1437 1440 1445 1448 1452 1455 1458 1462 1462 1462 1463 1463 1465 1467 1468 1470 1473 1474 1474 1475 1475 1476 1477 1479 1480 1481 1481 1483
1436 1433 1431 1430 1428 1425 1424 1424 1425 1428 1431 1434 1440 1445 1450 1454 1460 1463 1464 1463 1463 1465 1467 1468 1469 1471 1473 1473 1474 1475 1475 1475 1476 1477 1478 1479 1479 1479
1436 1435 1432 1431 1427 1423 1420 1419 1420 1423 1427 1432 1438 1444 1449 1454 1462 1465 1466 1465 1466 1467 1469 1469 1470 1472 1473 1474 1475 1475 1475 1476 1476 1477 1477 1476 1475 1476
1434 1433 1433 1432 1429 1426 1422 1421 1421 1424 1429 1435 1440 1445 1449 1455 1461 1464 1466 1469 1471 1471 1472 1473 1474 1475 1476 1477 1477 1477 1477 1477 1476 1476 1475 1474 1474 1474
1433 1432 1432 1433 1431 1429 1426 1426 1428 1433 1437 1438 1442 1447 1453 1455 1459 1464 1468 1471 1473 1475 1476 1477 1478 1478 1478 1478 1478 1478 1478 1478 1477 1476 1475 1474 1473 1472
1433 1432 1432 1434 1434 1433 1431 1432 1435 1438 1440 1441 1446 1449 1451 1454 1460 1465 1468 1471 1474 1476 1477 1479 1479 1479 1479 1479 1480 1480 1480 1479 1479 1478 1476 1475 1473 1471
1433 1432 1432 1434 1437 1436 1436 1436 1439 1443 1446 1447 1448 1450 1453 1457 1461 1465 1467 1470 1473 1475 1478 1480 1481 1481 1481 1481 1481 1481 1480 1480 1479 1478 1476 1474 1471 1469
1434 1434 1434 1435 1439 1440 1439 1440 1442 1445 1448 1449 1451 1453 1455 1459 1463 1465 1467 1470 1472 1475 1477 1480 1482 1482 1483 1482 1482 1481 1480 1479 1478 1476 1473 1471 1469 1467
1433 1434 1435 1436 1439 1442 1442 1442 1443 1446 1448 1451 1453 1455 1456 1460 1464 1468 1469 1471 1474 1476 1478 1479 1481 1483 1483 1483 1482 1481 1480 1478 1476 1473 1471 1468 1466 1464
1432 1431 1434 1437 1438 1441 1444 1444 1444 1446 1449 1451 1454 1457 1459 1462 1464 1467 1470 1471 1473 1475 1477 1478 1480 1482 1483 1484 1483 1481 1480 1478 1475 1472 1469 1465 1462 1461
1429 1431 1433 1436 1438 1440 1443 1446 1446 1447 1450 1453 1456 1459 1462 1464 1466 1468 1468 1471 1472 1473 1476 1478 1480 1481 1482 1483 1483 1481 1480 1477 1475 1472 1468 1464 1460 1457
1426 1428 1430 1435 1437 1440 1443 1446 1448 1450 1454 1456 1458 1461 1463 1466 1467 1467 1468 1469 1470 1472 1475 1478 1480 1481 1482 1482 1482 1481 1479 1477 1475 1471 1468 1465 1461 1457
1422 1423 1427 1433 1437 1440 1444 1446 1449 1452 1454 1457 1459 1461 1464 1466 1467 1468 1469 1470 1471 1474 1476 1477 1479 1480 1481 1481 1481 1480 1479 1477 1475 1470 1466 1464 1461 1457
1418 1420 1426 1431 1436 1439 1443 1447 1450 1452 1454 1457 1459 1462 1464 1466 1469 1471 1472 1473 1474 1476 1476 1477 1478 1480 1481 1481 1481 1480 1478 1476 1473 1469 1466 1463 1460 1456
1416 1421 1427 1431 1435 1440 1444 1447 1449 1452 1455 1457 1460 1462 1465 1468 1470 1472 1473 1475 1476 1478 1480 1479 1476 1477 1479 1480 1480 1479 1478 1476 1473 1469 1466 1463 1459 1455
1417 1422 1427 1430 1434 1440 1444 1446 1449 1452 1455 1457 1460 1463 1465 1467 1470 1472 1474 1475 1477 1479 1479 1478 1478 1479 1480 1478 1479 1478 1477 1475 1472 1469 1466 1463 1459 1455
1418 1422 1426 1429 1434 1439 1443 1446 1449 1452 1455 1458 1461 1463 1465 1467 1470 1472 1474 1476 1477 1478 1478 1477 1478 1479 1479 1478 1477 1476 1476 1475 1472 1470 1466 1463 1459 1454
1417 1421 1425 1428 1434 1438 1442 1445 1448 1451 1455 1458 1461 1464 1466 1468 1470 1472 1474 1475 1476 1477 1477 1477 1477 1477 1478 1479 1478 1475 1473 1473 1471 1469 1465 1462 1458 1453
1415 1420 1424 1429 1434 1438 1441 1445 1448 1451 1455 1458 1461 1464 1466 1468 1470 1472 1472 1473 1475 1476 1477 1477 1475 1475 1476 1477 1477 1475 1472 1469 1468 1466 1463 1460 1456 1451
1415 1419 1424 1428 1432 1437 1440 1444 1448 1451 1454 1458 1461 1463 1465 1467 1469 1470 1472 1472 1474 1475 1476 1476 1476 1477 1477 1477 1475 1474 1472 1469 1465 1462 1459 1457 1455 1450
1413 1418 1422 1427 1431 1435 1439 1443 1447 1450 1454 1457 1459 1462 1464 1466 1467 1469 1471 1472 1473 1474 1475 1476 1476 1477 1476 1475 1473 1471 1469 1467 1464 1461 1458 1454 1450 1446